This is the latest recevied weather packets stored in our database for station/object KC3ELT-10. If no packets are shown the sender has not sent any weather packets the latest 10 day(s).
| Time | Temp. | Humidity | Pressure | Rain* | Wind** | Luminosity | Snow |
|---|---|---|---|---|---|---|---|
| 1777390078 | 13.33° C | 50% | 1015.8 hPa | 0 mm | 1.79 m/s, 251° | - | - |
| 1777389779 | 12.78° C | 52% | 1015.8 hPa | 0 mm | 0.45 m/s, 203° | - | - |
| 1777389478 | 12.78° C | 51% | 1015.8 hPa | 0 mm | 1.79 m/s, 100° | - | - |
| 1777389179 | 12.78° C | 50% | 1016 hPa | 0 mm | 1.34 m/s, 246° | - | - |
| 1777388879 | 12.78° C | 53% | 1016 hPa | 0 mm | 0.45 m/s, 259° | - | - |
| 1777388578 | 12.78° C | 52% | 1016 hPa | 0 mm | 0.89 m/s, 196° | - | - |
| 1777388279 | 12.78° C | 50% | 1016 hPa | 0 mm | 1.79 m/s, 203° | - | - |
| 1777387979 | 12.78° C | 50% | 1016 hPa | 0 mm | 0.89 m/s, 250° | - | - |
| 1777387679 | 12.78° C | 51% | 1016 hPa | 0 mm | 0.45 m/s, 229° | - | - |
| 1777387378 | 12.78° C | 49% | 1015.7 hPa | 0 mm | 0.45 m/s, 247° | - | - |
| 1777387078 | 12.78° C | 51% | 1015.7 hPa | 0 mm | 0.89 m/s, 214° | - | - |
| 1777386778 | 12.78° C | 50% | 1015.7 hPa | 0 mm | 1.79 m/s, 281° | - | - |
| 1777386478 | 12.78° C | 48% | 1015.6 hPa | 0 mm | 0.89 m/s, 256° | - | - |
| 1777386178 | 12.78° C | 48% | 1015.6 hPa | 0 mm | 1.79 m/s, 194° | - | - |
| 1777385878 | 12.78° C | 49% | 1015.6 hPa | 0 mm | 3.13 m/s, 142° | - | - |
| 1777385578 | 12.78° C | 50% | 1015.6 hPa | 0 mm | 1.79 m/s, 198° | - | - |
| 1777385278 | 12.78° C | 48% | 1015.6 hPa | 0 mm | 1.79 m/s, 183° | - | - |
| 1777384978 | 12.78° C | 47% | 1015.6 hPa | 0 mm | 2.68 m/s, 248° | - | - |
| 1777384678 | 12.78° C | 55% | 1015.7 hPa | 0 mm | 0.89 m/s, 248° | - | - |
| 1777384378 | 12.78° C | 48% | 1015.7 hPa | 0 mm | 0.45 m/s, 250° | - | - |
| 1777384078 | 12.78° C | 51% | 1015.7 hPa | 0 mm | 1.79 m/s, 188° | - | - |
| 1777383779 | 12.22° C | 48% | 1015.7 hPa | 0 mm | 2.68 m/s, 190° | - | - |
| 1777383478 | 12.22° C | 52% | 1015.7 hPa | 0 mm | 1.34 m/s, 98° | - | - |
| 1777383179 | 12.22° C | 52% | 1015.7 hPa | 0 mm | 0.45 m/s, 188° | - | - |
| 1777382879 | 11.67° C | 54% | 1015.7 hPa | 0 mm | 0.89 m/s, 252° | - | - |
* Rain latest hour (hover to see other rain measurements)
** Current wind speed in m/s (hover to see current wind gust speed)